Flag for U.S.A. Weather past 2 weeks in Post Falls, Idaho, U.S.A.

Now
54 °F

Clear.


Feels Like: 52 °F
Forecast: 53 / 76 °F
Wind: 7 mph from Northeast

Location: Coeur d'Alene Weather Reporting System

Current Time: Aug 23, 2014 at 6:54:07 AM

Latest Report: Aug 23, 2014 at 6:35 AM


Visibility: 10 mi

Pressure: 30.14 "Hg

Humidity: 67%

Dew point: 43 °F

Location of Post FallsLocation

Historic Weather in Post Falls — Graph

°F

Post Falls temperature yesterday

Maximum temperature yesterday: 72 °F (at 12:55 PM)
Minimum temperature yesterday: 55 °F (at 3:55 AM)
Average temperature yesterday: 61 °F

Past Weeks' High & Low Weather Summary

 TemperatureHumidityPressure
High97 °F (Aug 11, 3:35 PM)94% (Aug 15, 1:35 AM)30.17 "Hg (Aug 15, 1:35 AM)
Low52 °F (Aug 9, 3:35 AM)10% (Aug 10, 5:55 PM)29.66 "Hg (Aug 19, 4:55 PM)
Average69 °F58%29.98 "Hg
* Reported Aug 8 5:15 AM — Aug 23 5:35 AM, Post Falls, Weather by CustomWeather, © 2014

Note: Actual official high and low records may vary slightly from our data, if they occured in-between our weather recording intervals... More about our weather records

Advertising

Post Falls weather history for previous 24 hours

 ConditionsComfort  
Time TempWeatherWind HumidityBarometerVisibility
5:35 AM
Aug 23
52 °FClear.8 mph67%30.13 "Hg10 mi
4:55 AM54 °FClear.12 mph63%30.13 "Hg10 mi
4:35 AM55 °FClear.12 mph59%30.12 "Hg10 mi
4:15 AM55 °FClear.10 mph63%30.12 "Hg10 mi
3:55 AM55 °FClear.12 mph63%30.12 "Hg10 mi
3:35 AM55 °FPassing clouds.10 mph63%30.12 "Hg10 mi
3:15 AM57 °FPassing clouds.12 mph59%30.12 "Hg10 mi
2:55 AM57 °FPassing clouds.13 mph59%30.11 "Hg10 mi
2:35 AM59 °FOvercast.12 mph55%30.11 "Hg10 mi
2:15 AM59 °FOvercast.13 mph55%30.10 "Hg10 mi
1:55 AM61 °FOvercast.15 mph52%30.10 "Hg10 mi
1:35 AM61 °FOvercast.15 mph55%30.10 "Hg10 mi
12:55 AM61 °FOvercast.13 mph55%30.10 "Hg10 mi
12:35 AM61 °FOvercast.12 mph55%30.10 "Hg10 mi
12:15 AM61 °FPassing clouds.15 mph55%30.10 "Hg10 mi
11:55 PM
Aug 22
61 °FPassing clouds.13 mph59%30.10 "Hg10 mi
11:35 PM61 °FMostly cloudy.14 mph59%30.10 "Hg10 mi
10:55 PM61 °FOvercast.14 mph63%30.09 "Hg10 mi
10:35 PM61 °FPassing clouds.14 mph63%30.09 "Hg10 mi
10:15 PM61 °FPassing clouds.13 mph63%30.08 "Hg10 mi
9:55 PM61 °FClear.10 mph63%30.08 "Hg10 mi
9:35 PM61 °FClear.13 mph63%30.08 "Hg10 mi
9:15 PM63 °FPassing clouds.12 mph59%30.07 "Hg10 mi
8:55 PM63 °FPassing clouds.14 mph59%30.07 "Hg10 mi
8:35 PM63 °FSunny.15 mph59%30.06 "Hg10 mi
8:15 PM63 °FSunny.15 mph59%30.05 "Hg10 mi
7:55 PM64 °FSunny.15 mph56%30.04 "Hg10 mi
7:35 PM64 °FSunny.14 mph56%30.03 "Hg10 mi
7:15 PM66 °FSunny.14 mph52%30.02 "Hg10 mi
6:55 PMN/ASunny.16 mphN/A30.01 "Hg10 mi
6:35 PMN/ASunny.18 mphN/A30.01 "Hg10 mi
5:55 PMN/ASunny.16 mphN/A30.00 "Hg10 mi
5:35 PM70 °FSunny.16 mph46%30.01 "Hg10 mi
5:15 PM72 °FSunny.15 mph44%30.00 "Hg10 mi
4:55 PM70 °FSunny.17 mph53%30.00 "Hg10 mi
4:35 PM70 °FSunny.16 mph50%30.00 "Hg10 mi
4:15 PMN/ASunny.21 mphN/A29.99 "Hg10 mi
3:55 PM72 °FSunny.15 mph50%30.00 "Hg10 mi
3:35 PMN/ASunny.20 mphN/A29.99 "Hg10 mi
3:15 PMN/ASunny.20 mphN/A30.00 "Hg10 mi
2:55 PMN/ASunny.22 mphN/A30.00 "Hg10 mi
2:35 PMN/ASunny.20 mphN/A30.00 "Hg10 mi
2:15 PMN/ASunny.17 mphN/A30.00 "Hg10 mi
1:55 PMN/APassing clouds.21 mphN/A30.00 "Hg10 mi
1:35 PMN/APassing clouds.21 mphN/A30.00 "Hg10 mi
12:55 PM72 °FSunny.17 mph50%30.00 "Hg10 mi
12:35 PM70 °FSunny.15 mph57%30.00 "Hg10 mi
12:15 PM70 °FSunny.17 mph53%30.01 "Hg10 mi
11:55 AM68 °FSunny.18 mph56%30.01 "Hg10 mi
11:35 AM66 °FSunny.17 mph60%30.01 "Hg10 mi
11:15 AM64 °FSunny.18 mph64%30.01 "Hg10 mi
10:55 AM63 °FPassing clouds.16 mph73%30.01 "Hg10 mi
10:35 AM61 °FPartly sunny.12 mph72%30.01 "Hg10 mi
10:15 AM61 °FMostly cloudy.17 mph72%30.00 "Hg10 mi
9:55 AM59 °FMostly cloudy.14 mph77%30.01 "Hg10 mi
9:35 AM57 °FPartly sunny.10 mph82%30.01 "Hg10 mi
9:15 AM57 °FBroken clouds.10 mph82%30.01 "Hg10 mi
8:55 AM59 °FPartly sunny.10 mph72%30.01 "Hg10 mi
8:35 AM59 °FPartly sunny.7 mph72%30.01 "Hg10 mi
8:15 AM57 °FPartly sunny.8 mph77%30.00 "Hg10 mi
7:55 AM57 °FOvercast.12 mph77%29.99 "Hg10 mi
7:35 AM57 °FOvercast.10 mph72%29.99 "Hg10 mi
7:15 AM57 °FPartly sunny.10 mph72%29.98 "Hg10 mi
6:55 AM55 °FPassing clouds.13 mph77%29.97 "Hg10 mi
6:35 AM55 °FClear.12 mph77%29.96 "Hg10 mi
6:15 AM55 °FClear.13 mph77%29.96 "Hg10 mi
Weather by CustomWeather, © 2014

See weather overviewHow to use our weather pages